Regional Weather Roundup
Issued by NWS

Home | Current Version | Previous Version | Text Only | Print | Product List | Glossary On
Versions: 1 2 3 4 5 6 7 8 9 10 11 12 13 14 15 16 17 18 19 20 21 22 23 24 25 26 27 28 29 30 31 32 33 34 35 36 37 38 39 40 41 42 43 44 45 46 47 48 49 50
000
ASUS43 KDTX 040410
RWRMI
MICHIGAN HOURLY REGIONAL WEATHER ROUNDUP
NATIONAL WEATHER SERVICE DETROIT/PONTIAC MI
1200 AM EDT WED MAY 04 2016

NOTE: "FAIR" INDICATES FEW OR NO CLOUDS BELOW 12,000 FEET WITH NO
SIGNIFICANT WEATHER AND/OR OBSTRUCTION TO VISIBILITY.

MIZ047>049-052>055-059>063-066>070-074>076-081>083-040500-
SOUTHEAST LOWER MICHIGAN

CITY           SKY/WX    TMP DP  RH WIND       PRES   REMARKS
ADRIAN         CLEAR     51  43  74 SW7       29.77F
ALMA           MOCLDY    53  37  54 S13       29.69F
ANN ARBOR      PTCLDY    51  41  68 SW6       29.75F
BAD AXE        CLOUDY    55  43  64 S9        29.70F
CARO           CLOUDY    53  37  54 CALM      29.70F
DETROIT CITY   CLEAR     51  44  77 S7        29.76F
DETROIT        PTCLDY    51  44  77 S6        29.76F
FLINT          CLOUDY    56  38  50 S6        29.72F
GROSSE ILE     PTCLDY    52  48  87 S7        29.75F
HILLSDALE      CLOUDY    53  37  53 S9        29.75F
HOWELL         CLOUDY    54  37  52 S5        29.72F

CITY           SKY/WX    TMP DP  RH WIND       PRES   REMARKS
JACKSON        CLOUDY    54  37  52 S7        29.73F
LAMBERTVILLE   CLEAR     53  42  66 SW6       29.77F
LANSING        CLOUDY    56  35  45 S9        29.71F
LAPEER         FAIR      53  42  67 S7        29.73F
MASON          CLOUDY    53  41  63 S8        29.72F
MONROE         CLEAR     50  42  73 S7        29.76F
MT. CLEMENS    CLEAR     47  46  97 S9        29.73F
PONTIAC        CLOUDY    52  43  71 S6        29.73F
PORT HOPE        N/A     57  42  57 SW6       29.67F
PORT HURON     CLEAR     48  43  81 S7        29.75F
TRI CITIES     CLOUDY    57  37  47 S8        29.69F
MIDLAND        MOCLDY    55  37  50 S5        29.67F
TROY           PTCLDY    53  44  71 S6        29.77F
SAGINAW HB     CLOUDY    55  37  50 S8        29.69F
$$
MIZ043>046-050>051-056>058-064>065-071>073-077>080-040500-
SOUTHWEST LOWER MICHIGAN

CITY           SKY/WX    TMP DP  RH WIND       PRES   REMARKS
BATTLE CREEK   CLOUDY    56  37  49 S10       29.72F
BENTON HARBOR  CLOUDY    58  40  51 S7        29.70F
BIG RAPIDS     MOCLDY    52  36  54 CALM      29.66F
COLDWATER      CLOUDY    55  40  55 S5        29.74F
FREMONT        FAIR      50  37  59 S3        29.67F
HOLLAND        CLOUDY    58  40  51 S10       29.68F
GRAND RAPIDS   CLOUDY    58  38  47 S12       29.68F
IONIA          MOCLDY    56  36  48 S10       29.68F
KALAMAZOO      CLOUDY    57  38  48 SW12      29.72F
LUDINGTON      DRIZZLE   46  44  93 N3        29.66F
MARSHALL       CLOUDY    56  36  45 S3        29.72F
MOUNT PLEASANT CLOUDY    56  37  48 S7        29.66F
MUSKEGON       CLOUDY    50  38  63 S3        29.68S
SOUTH HAVEN    CLOUDY    59  39  48 SW3       29.70F
$$
MIZ016>042-040500-
NORTHERN LOWER MICHIGAN

CITY           SKY/WX    TMP DP  RH WIND       PRES   REMARKS
ALPENA         CLOUDY    50  41  71 N3        29.67F
BEAVER ISLAND  CLOUDY    47  45  93 SW7       29.66S
BELLAIRE       FLURRIES  48  46  93 CALM      29.67F
CADILLAC       DRIZZLE   50  42  72 SW7       29.65F
CHARLEVOIX     DRIZZLE   47  47  99 SE5       29.69F
FRANKFORT      CLOUDY    46  44  94 CALM      29.65F
GAYLORD        CLOUDY    48  43  82 CALM      29.66F
GRAYLING       CLOUDY    48  45  87 CALM      29.67F
HARBOR SPRINGS RAIN      46  45  97 CALM      29.66F
HOUGHTON LAKE  CLOUDY    53  40  61 NW7       29.66F
MANISTEE       CLOUDY    46  39  76 CALM      29.67F
OSCODA         CLOUDY    53  37  54 SW3       29.66S
PELLSTON       LGT RAIN  47  45  93 S3        29.66F
ROGERS CITY    LGT RAIN  49  43  80 W5        29.67F
TRAVERSE CITY  LGT RAIN  49  44  83 CALM      29.66F
$$
MIZ007>008-015-040500-
EASTERN UPPER MICHIGAN

CITY           SKY/WX    TMP DP  RH WIND       PRES   REMARKS
KINROSS          N/A     46  46 100 SW3       29.64F
MACKINAC ISLAN CLOUDY    45  45 100 S6        29.65F
NEWBERRY       CLOUDY    46  46  97 CALM      29.64F
S. S. MARIE    CLOUDY    47  44  90 CALM      29.64F
MUNISING         N/A     41  36  82 NW9       29.70S
$$
MIZ004>006-011>014-085-040500-
CENTRAL UPPER MICHIGAN

CITY           SKY/WX    TMP DP  RH WIND       PRES   REMARKS
MANISTIQUE     CLOUDY    44  43  95 NW9       29.66S
ESCANABA       PTCLDY    43  37  81 N8G16     29.71R
MENOMINEE      PTCLDY    47  42  83 N5        29.71R
SAWYER-GWINN   CLOUDY    40  34  81 N15G25    29.71S WCI  31
$$
MIZ001>003-009>011-084-040500-
WESTERN UPPER MICHIGAN

CITY           SKY/WX    TMP DP  RH WIND       PRES   REMARKS
IRON MOUNTAIN  CLOUDY    45  41  86 N9        29.71R
HOUGHTON       CLOUDY    42  34  73 N16G25    29.77R
COPPER HARBOR    N/A     40  37  89 N15       29.76R WCI  32
IRONWOOD         N/A     43  37  81 N9G20     29.79R
$$

ABBREVIATIONS USED IN REMARKS
   TC - TEMPERATURE IN CELSIUS
  WCI - WIND CHILL INDEX
   HX - HEAT INDEX
  VSB - VISIBILITY




USA.gov is the U.S. government's official web portal to all federal, state and local government web resources and services.